[[{"header":{"parameterUnit":"m.s-1","parameterCategory":1,"la1":30.2991,"la2":30.254,"lo1":-89.0895,"lo2":-89.0444,"dy":0.0017,"dx":0.0017,"nx":28,"ny":28,"refTime":"2025-09-11T03:00:00:Z","depth":0,"parameterNumber":2,"parameterNumberName":"U-component_of_WINDS"},"data":[0,0,0,0,0,0,0,0,0,0,0,0,0,0,0,0,0,0,0,0,0,0,0,0,0,0,0,0,0,0,0,0,0,0,0,0,0,0,0,0,0,0,0,0,0,0,0,0,0,0,0,0,0,0,0,0,0,0,-0.0785,-0.0787,0,-0.091,-0.0912,-0.0913,-0.0955,-0.0954,-0.0954,-0.0953,-0.1085,-0.1089,-0.1093,0,0,0,0,0,0,0,0,0,0,0,0,0,-0.0586,-0.059,-0.0785,-0.0787,-0.0788,-0.091,-0.0912,-0.0913,-0.0955,-0.0954,-0.0954,-0.0953,-0.1084,-0.1089,-0.1093,0,0,0,0,0,0,0,0,0,0,0,0,0,-0.0688,-0.0591,-0.0785,-0.0824,-0.0828,-0.091,-0.0912,-0.0914,-0.0955,-0.0954,-0.0954,-0.0953,-0.1082,-0.1088,-0.1094,-0.1147,0,0,-0.1112,-0.1115,0,0,0,0,0,0,0,0,-0.0682,-0.0695,-0.0816,-0.0821,-0.0827,-0.0916,-0.089,-0.0992,-0.0955,-0.0907,-0.0953,-0.0953,-0.103,-0.104,-0.1065,-0.1153,-0.1159,-0.1113,-0.1117,-0.1119,-0.1121,0,0,0,0,0,0,0,-0.0675,-0.069,-0.0835,-0.0818,-0.0824,-0.0836,-0.085,-0.0909,-0.0972,-0.0911,-0.0915,-0.0929,-0.1033,-0.106,-0.1069,-0.1161,-0.1113,-0.1118,-0.1122,-0.1124,-0.1299,-0.13,0,0,0,0,0,0,-0.0661,-0.0684,-0.0831,-0.0838,-0.0751,-0.084,-0.0855,-0.0888,-0.0971,-0.0983,-0.0929,-0.093,-0.105,-0.1062,-0.1074,-0.1141,-0.1119,-0.1125,-0.1128,-0.1298,-0.1299,-0.13,0,0,0,0,0,0,-0.0657,-0.0674,-0.0826,-0.0762,-0.0782,-0.0844,-0.0881,-0.0891,-0.0918,-0.0984,-0.0996,-0.0945,-0.105,-0.1065,-0.1128,-0.1147,-0.1127,-0.1133,-0.1296,-0.1298,-0.1299,-0.1277,0,0,0,0,0,0,-0.0651,-0.0672,-0.0692,-0.0762,-0.0786,-0.0877,-0.0882,-0.0894,-0.0928,-0.093,-0.1003,-0.1014,-0.105,-0.1119,-0.1134,-0.1154,-0.1138,-0.1295,-0.1297,-0.1299,-0.1276,-0.1277,-0.1278,0,0,0,0,0,-0.0644,-0.0681,-0.0693,-0.071,-0.0812,-0.0878,-0.0892,-0.0931,-0.0929,-0.095,-0.0993,-0.1011,-0.1142,-0.1125,-0.1143,-0.1165,-0.1294,-0.1296,-0.1299,-0.1276,-0.1277,-0.1278,0,0,0,0,0,0,-0.0613,-0.0691,-0.0705,-0.0766,-0.0815,-0.0885,-0.0913,-0.0932,-0.0983,-0.0983,-0.1032,-0.1048,-0.1107,-0.1143,-0.1123,-0.1221,-0.1219,-0.1225,-0.1196,-0.1197,-0.1198,-0.1189,-0.1143,0,0,0,0,0,-0.0613,-0.0659,-0.0726,-0.0773,-0.0797,-0.085,-0.0881,-0.0907,-0.096,-0.0982,-0.1029,-0.1081,-0.1134,-0.1167,-0.1219,-0.1281,-0.1298,-0.1305,-0.1306,-0.1307,-0.1312,-0.1347,-0.1351,-0.1308,-0.1308,-0.1307,0,0,-0.0614,-0.0663,-0.0689,-0.0769,-0.0809,-0.0857,-0.0868,-0.0918,-0.0954,-0.099,-0.1052,-0.1088,-0.115,-0.1212,-0.1242,-0.1243,-0.1327,-0.131,-0.131,-0.1314,-0.135,-0.1354,-0.1358,-0.1309,-0.1309,-0.1309,0,0,-0.0641,-0.0682,-0.0727,-0.0767,-0.0828,-0.0863,-0.0874,-0.0941,-0.0966,-0.1029,-0.1057,-0.1101,-0.1191,-0.1233,-0.1266,-0.1308,-0.1328,-0.1324,-0.133,-0.1364,-0.1368,-0.1371,-0.1387,-0.1392,-0.1329,-0.1328,-0.1328,0,-0.0636,-0.0708,-0.0747,-0.0796,-0.083,-0.0863,-0.0909,-0.0947,-0.1022,-0.1046,-0.1046,-0.1158,-0.1202,-0.1275,-0.1285,-0.1311,-0.1325,-0.1317,-0.1364,-0.1368,-0.1371,-0.1387,-0.1393,-0.1328,-0.1328,-0.1328,-0.1328,0,-0.0698,-0.0747,-0.0776,-0.0847,-0.0884,-0.0931,-0.0979,-0.1013,-0.1036,-0.1071,-0.1135,-0.1188,-0.1252,-0.1271,-0.1294,-0.1347,-0.1346,-0.1354,-0.1354,-0.1374,-0.139,-0.1396,-0.1327,-0.1327,-0.1327,-0.1327,0,0,-0.071,-0.0801,-0.0811,-0.0844,-0.0913,-0.0953,-0.1002,-0.1062,-0.1091,-0.1141,-0.1184,-0.1259,-0.1267,-0.1304,-0.1333,-0.1363,-0.1393,-0.1367,-0.137,-0.1371,-0.1456,-0.145,-0.1456,-0.1406,-0.1407,-0.1408,-0.1451,0,-0.0747,-0.0834,-0.0871,-0.0942,-0.0988,-0.102,-0.1062,-0.111,-0.1144,-0.119,-0.1228,-0.1281,-0.1287,-0.131,-0.134,-0.1383,-0.1411,-0.138,-0.1448,-0.145,-0.1432,-0.1464,-0.1459,-0.1496,-0.1458,-0.1459,-0.1459,0,-0.0802,-0.0851,-0.0926,-0.099,-0.1011,-0.1048,-0.1107,-0.1149,-0.1205,-0.1227,-0.1269,-0.1296,-0.1349,-0.1344,-0.1419,-0.1397,-0.1427,-0.1452,-0.1454,-0.1463,-0.1456,-0.1475,-0.151,-0.1515,-0.1469,-0.1468,-0.1468,0,-0.0804,-0.089,-0.0945,-0.0972,-0.1048,-0.1073,-0.1106,-0.116,-0.1194,-0.1246,-0.1269,-0.1326,-0.1358,-0.1402,-0.1444,-0.1436,-0.1515,-0.1514,-0.1537,-0.1536,-0.1553,-0.1552,-0.1594,-0.1571,-0.1571,-0.157,-0.157,0,-0.0842,-0.0886,-0.0947,-0.0982,-0.1033,-0.1075,-0.1126,-0.1161,-0.1209,-0.1251,-0.1282,-0.1322,-0.1374,-0.1421,-0.1454,-0.1512,-0.1526,-0.1546,-0.1555,-0.1544,-0.1542,-0.1565,-0.1564,-0.1572,-0.1572,-0.1571,-0.1571,0,-0.0853,-0.0896,-0.0959,-0.1025,-0.1042,-0.1077,-0.1134,-0.1169,-0.1204,-0.1258,-0.1273,-0.1329,-0.1386,-0.1431,-0.1506,-0.1528,-0.1588,-0.1598,-0.1569,-0.1574,-0.1595,-0.1593,-0.1655,-0.1665,-0.1633,-0.1634,-0.1634,0,-0.0875,-0.091,-0.0979,-0.1009,-0.1041,-0.1089,-0.1124,-0.1167,-0.1202,-0.1267,-0.1294,-0.1352,-0.1402,-0.1491,-0.1539,-0.1596,-0.1607,-0.1625,-0.1616,-0.1604,-0.1609,-0.1606,-0.161,-0.1626,-0.1626,-0.1626,-0.1626,0,-0.0909,-0.0928,-0.0976,-0.1031,-0.1071,-0.1117,-0.1164,-0.1187,-0.1238,-0.1276,-0.1333,-0.1371,-0.1446,-0.1504,-0.1566,-0.1602,-0.1623,-0.1628,-0.1637,-0.1627,-0.161,-0.162,-0.1573,-0.1627,-0.1627,-0.1627,-0.1627,-0.1627,-0.0928,-0.096,-0.1013,-0.1066,-0.1105,-0.1148,-0.1184,-0.1223,-0.1271,-0.1334,-0.1357,-0.1416,-0.1471,-0.1556,-0.1591,-0.1639,-0.1641,-0.1653,-0.1657,-0.1659,-0.1658,-0.1601,-0.165,-0.165,-0.165,-0.165,-0.165,0,-0.0964,-0.1,-0.1047,-0.1111,-0.1152,-0.1166,-0.1219,-0.1253,-0.1304,-0.1352,-0.1399,-0.1465,-0.1521,-0.1573,-0.1632,-0.166,-0.1671,-0.1674,-0.1673,-0.1681,-0.1653,-0.164,-0.1664,-0.1664,-0.1664,-0.1664,-0.1664,-0.1664,-0.0988,-0.1044,-0.1069,-0.1145,-0.1181,-0.1237,-0.1266,-0.1306,-0.1345,-0.1416,-0.1463,-0.1495,-0.1546,-0.1608,-0.1661,-0.1675,-0.1695,-0.1696,-0.1712,-0.1685,-0.1683,-0.1681,-0.1669,-0.17,-0.17,-0.1737,-0.1737,-0.1738]},{"header":{"parameterUnit":"m.s-1","parameterCategory":1,"la1":30.2991,"la2":30.254,"lo1":-89.0895,"lo2":-89.0444,"dy":0.0017,"dx":0.0017,"nx":28,"ny":28,"refTime":"2025-09-11T03:00:00:Z","depth":0,"parameterNumber":3,"parameterNumberName":"V-component_of_WINDS"},"data":[0,0,0,0,0,0,0,0,0,0,0,0,0,0,0,0,0,0,0,0,0,0,0,0,0,0,0,0,0,0,0,0,0,0,0,0,0,0,0,0,0,0,0,0,0,0,0,0,0,0,0,0,0,0,0,0,0,0,-3.0324,-3.0324,0,-3.0402,-3.0403,-3.0404,-3.0374,-3.0373,-3.0371,-3.0369,-3.0445,-3.0449,-3.0452,0,0,0,0,0,0,0,0,0,0,0,0,0,-3.0144,-3.0148,-3.0324,-3.0325,-3.0326,-3.0402,-3.0403,-3.0404,-3.0375,-3.0372,-3.037,-3.0368,-3.0444,-3.0448,-3.0453,0,0,0,0,0,0,0,0,0,0,0,0,0,-3.0222,-3.0149,-3.0323,-3.032,-3.0321,-3.0402,-3.0403,-3.0404,-3.0375,-3.0372,-3.037,-3.0367,-3.0443,-3.0448,-3.0453,-3.0541,0,0,-3.047,-3.0473,0,0,0,0,0,0,0,0,-3.0218,-3.0229,-3.032,-3.0321,-3.0321,-3.0376,-3.0368,-3.045,-3.0376,-3.0354,-3.0369,-3.0366,-3.0424,-3.0431,-3.0451,-3.0545,-3.0548,-3.0471,-3.0474,-3.0476,-3.0478,0,0,0,0,0,0,0,-3.0212,-3.0225,-3.0354,-3.0321,-3.0322,-3.0313,-3.0322,-3.0383,-3.0403,-3.0356,-3.0354,-3.0364,-3.0424,-3.0446,-3.0453,-3.0549,-3.0471,-3.0476,-3.0479,-3.0481,-3.0717,-3.072,0,0,0,0,0,0,-3.0207,-3.0221,-3.0352,-3.0357,-3.0262,-3.0319,-3.0328,-3.0361,-3.0402,-3.0406,-3.0366,-3.0362,-3.0438,-3.0446,-3.0455,-3.056,-3.0476,-3.0482,-3.0485,-3.0714,-3.0718,-3.0721,0,0,0,0,0,0,-3.0204,-3.0219,-3.0349,-3.0288,-3.0304,-3.0325,-3.0362,-3.0364,-3.0386,-3.041,-3.0413,-3.0386,-3.0436,-3.0448,-3.052,-3.0563,-3.0484,-3.0489,-3.0711,-3.0715,-3.072,-3.0771,0,0,0,0,0,0,-3.0198,-3.0218,-3.0253,-3.029,-3.0308,-3.0414,-3.0365,-3.0367,-3.0396,-3.0392,-3.0429,-3.0432,-3.0435,-3.0512,-3.0526,-3.0569,-3.0493,-3.0707,-3.0713,-3.0718,-3.0766,-3.0777,-3.0787,0,0,0,0,0,-3.0192,-3.0263,-3.0254,-3.027,-3.0351,-3.0416,-3.0426,-3.0429,-3.04,-3.0434,-3.0449,-3.0431,-3.0556,-3.052,-3.0535,-3.058,-3.0704,-3.0711,-3.0718,-3.0761,-3.0775,-3.0786,0,0,0,0,0,0,-3.0229,-3.0268,-3.0259,-3.0344,-3.0377,-3.0411,-3.0454,-3.0443,-3.0484,-3.0478,-3.0478,-3.0487,-3.0562,-3.0578,-3.0537,-3.0667,-3.0626,-3.0636,-3.0654,-3.0667,-3.0677,-3.0671,-3.0498,0,0,0,0,0,-3.0248,-3.0298,-3.0329,-3.0401,-3.0418,-3.0434,-3.0462,-3.0461,-3.0495,-3.0508,-3.0529,-3.0561,-3.0608,-3.0638,-3.0682,-3.0768,-3.0775,-3.0807,-3.0817,-3.0826,-3.0834,-3.088,-3.0894,-3.0743,-3.0743,-3.0743,0,0,-3.0285,-3.0313,-3.0345,-3.0409,-3.0435,-3.0486,-3.0446,-3.0501,-3.0539,-3.0516,-3.0586,-3.0603,-3.0639,-3.0718,-3.0754,-3.0734,-3.0878,-3.0834,-3.0841,-3.0845,-3.0889,-3.0903,-3.0916,-3.0748,-3.0747,-3.0746,0,0,-3.0381,-3.0407,-3.047,-3.0497,-3.0537,-3.0546,-3.0562,-3.0598,-3.0608,-3.0679,-3.0663,-3.0707,-3.0787,-3.0813,-3.0837,-3.0942,-3.0927,-3.0956,-3.101,-3.1055,-3.1067,-3.1078,-3.1115,-3.1128,-3.0965,-3.0965,-3.0965,0,-3.0422,-3.05,-3.0503,-3.0561,-3.059,-3.0573,-3.0636,-3.0661,-3.0713,-3.0732,-3.0709,-3.081,-3.0833,-3.0918,-3.0944,-3.0964,-3.098,-3.0952,-3.1065,-3.1076,-3.1086,-3.1121,-3.1135,-3.0968,-3.0968,-3.0967,-3.0967,0,-3.0549,-3.0604,-3.0649,-3.0701,-3.0735,-3.0795,-3.0806,-3.0839,-3.0836,-3.0848,-3.0919,-3.0946,-3.0996,-3.1016,-3.1012,-3.1101,-3.1087,-3.1065,-3.1023,-3.1104,-3.1137,-3.115,-3.0973,-3.0972,-3.0971,-3.097,0,0,-3.0669,-3.0723,-3.074,-3.0763,-3.0806,-3.0847,-3.0906,-3.0956,-3.0984,-3.102,-3.1069,-3.1137,-3.1117,-3.1144,-3.1143,-3.1183,-3.1264,-3.1156,-3.1157,-3.1175,-3.1363,-3.1379,-3.1395,-3.1255,-3.1257,-3.1259,-3.1359,0,-3.0768,-3.0873,-3.0877,-3.0972,-3.1022,-3.1007,-3.1058,-3.1089,-3.1102,-3.1145,-3.1158,-3.1206,-3.1176,-3.1193,-3.1231,-3.1246,-3.1302,-3.1239,-3.1298,-3.1301,-3.129,-3.1412,-3.1429,-3.1523,-3.1373,-3.1375,-3.1376,0,-3.0896,-3.0938,-3.1039,-3.1075,-3.1096,-3.1142,-3.1187,-3.1229,-3.1264,-3.127,-3.1301,-3.1294,-3.1353,-3.131,-3.139,-3.1347,-3.1372,-3.1383,-3.1386,-3.1391,-3.1343,-3.142,-3.1553,-3.1566,-3.1397,-3.1395,-3.1394,0,-3.0974,-3.1055,-3.1125,-3.1146,-3.119,-3.1222,-3.1242,-3.1274,-3.1303,-3.1343,-3.1362,-3.1407,-3.1432,-3.1466,-3.1471,-3.144,-3.1552,-3.1509,-3.1558,-3.1558,-3.1581,-3.158,-3.1719,-3.1598,-3.1598,-3.1598,-3.1597,0,-3.1083,-3.1144,-3.1161,-3.1204,-3.1273,-3.1277,-3.1344,-3.1361,-3.139,-3.1435,-3.1424,-3.1467,-3.1471,-3.1515,-3.1519,-3.1585,-3.1596,-3.1602,-3.1602,-3.1603,-3.1602,-3.1618,-3.1612,-3.1601,-3.1601,-3.16,-3.1599,0,-3.118,-3.1194,-3.127,-3.1305,-3.1316,-3.1365,-3.1394,-3.1435,-3.1447,-3.1504,-3.1518,-3.1536,-3.1586,-3.1595,-3.1654,-3.1657,-3.1736,-3.1729,-3.1724,-3.1724,-3.1771,-3.1766,-3.1926,-3.1947,-3.1812,-3.1814,-3.1815,0,-3.1249,-3.1296,-3.1337,-3.1368,-3.1389,-3.1438,-3.1469,-3.1474,-3.1506,-3.1549,-3.1585,-3.1635,-3.1675,-3.1756,-3.1773,-3.1818,-3.1813,-3.1865,-3.1819,-3.1818,-3.1813,-3.181,-3.1814,-3.1874,-3.1876,-3.1877,-3.1878,0,-3.1369,-3.1373,-3.1418,-3.1466,-3.1503,-3.154,-3.1576,-3.1601,-3.1611,-3.1647,-3.17,-3.1731,-3.1792,-3.1841,-3.1886,-3.1904,-3.1893,-3.1892,-3.1906,-3.1906,-3.1902,-3.1904,-3.1748,-3.1888,-3.1887,-3.1887,-3.1886,-3.1886,-3.1453,-3.1495,-3.1531,-3.1581,-3.1609,-3.1642,-3.1682,-3.17,-3.1744,-3.1795,-3.1795,-3.1853,-3.1885,-3.1945,-3.1966,-3.201,-3.1993,-3.2013,-3.2017,-3.2022,-3.2027,-3.1895,-3.2018,-3.2018,-3.2018,-3.2017,-3.2017,0,-3.1572,-3.1595,-3.1641,-3.1692,-3.1732,-3.1719,-3.1757,-3.1791,-3.1842,-3.1874,-3.1914,-3.1974,-3.2022,-3.2043,-3.209,-3.2121,-3.2117,-3.2133,-3.213,-3.2135,-3.2039,-3.2023,-3.2136,-3.2136,-3.2136,-3.2136,-3.2136,-3.2136,-3.1639,-3.1709,-3.1717,-3.18,-3.1822,-3.1879,-3.1902,-3.1932,-3.1958,-3.2026,-3.2066,-3.2081,-3.2108,-3.2157,-3.22,-3.2205,-3.2222,-3.2241,-3.2243,-3.2153,-3.2141,-3.213,-3.2114,-3.2245,-3.2245,-3.2335,-3.2335,-3.2336]}]]